This is the latest recevied weather packets stored in our database for station/object KD9ZDW. If no packets are shown the sender has not sent any weather packets the latest 10 day(s).
| Time | Temp. | Humidity | Pressure | Rain* | Wind** | Luminosity | Snow |
|---|---|---|---|---|---|---|---|
| 1777900656 | 13.89° C | 68% | 1008.4 hPa | 0 mm | - | 186 W/m² | - |
| 1777900353 | 13.33° C | 68% | 1008.4 hPa | 0 mm | - | 211 W/m² | - |
| 1777900050 | 13.33° C | 69% | 1008.4 hPa | 0 mm | - | 94 W/m² | - |
| 1777899746 | 13.33° C | 68% | 1008.5 hPa | 0 mm | - | 196 W/m² | - |
| 1777899444 | 13.33° C | 68% | 1008.7 hPa | 0 mm | - | 228 W/m² | - |
| 1777899141 | 13.33° C | 69% | 1008.7 hPa | 0 mm | - | 139 W/m² | - |
| 1777898839 | 13.33° C | 68% | 1008.7 hPa | 0 mm | - | 202 W/m² | - |
| 1777898536 | 12.78° C | 69% | 1008.7 hPa | 0 mm | - | 185 W/m² | - |
| 1777898234 | 12.78° C | 70% | 1009 hPa | 0 mm | - | 185 W/m² | - |
| 1777897931 | 12.22° C | 71% | 1008.7 hPa | 0 mm | - | 168 W/m² | - |
| 1777897626 | 12.78° C | 70% | 1008.9 hPa | 0 mm | - | 156 W/m² | - |
| 1777897322 | 12.22° C | 71% | 1008.9 hPa | 0 mm | - | 40 W/m² | - |
| 1777897018 | 11.67° C | 72% | 1008.8 hPa | 0 mm | - | 129 W/m² | - |
| 1777896716 | 12.22° C | 72% | 1008.8 hPa | 0 mm | - | 38 W/m² | - |
| 1777896412 | 11.67° C | 73% | 1008.9 hPa | 0 mm | - | 83 W/m² | - |
| 1777896110 | 11.67° C | 72% | 1008.7 hPa | 0 mm | - | 35 W/m² | - |
| 1777895808 | 11.11° C | 74% | 1008.9 hPa | 0 mm | - | 81 W/m² | - |
| 1777895505 | 11.11° C | 74% | 1008.6 hPa | 0 mm | - | 32 W/m² | - |
| 1777895203 | 11.11° C | 74% | 1008.5 hPa | 0 mm | - | 60 W/m² | - |
| 1777894900 | 11.11° C | 74% | 1008.8 hPa | 0 mm | - | 57 W/m² | - |
| 1777894597 | 10.56° C | 75% | 1008.7 hPa | 0 mm | - | 50 W/m² | - |
| 1777894295 | 10.56° C | 76% | 1008.6 hPa | 0 mm | - | 42 W/m² | - |
| 1777893992 | 10° C | 76% | 1008.6 hPa | 0 mm | - | 35 W/m² | - |
| 1777893688 | 10° C | 77% | 1008.6 hPa | 0 mm | - | 27 W/m² | - |
| 1777893384 | 10° C | 77% | 1008.7 hPa | 0 mm | - | 21 W/m² | - |
* Rain latest hour (hover to see other rain measurements)
** Current wind speed in m/s (hover to see current wind gust speed)